Hourly Data Report for January 05, 2005

TORONTO CITY
ONTARIO

43°40'00.000" N
79°24'00.000" W
112.50 m
6158355
71508
XTO

Download Data

Hourly Data (January 2005)
Hourly Data Report for January 5, 2005
TIME
LST
Temp Definition
°C
Dew Point Definition
°C
Rel Hum Definition
%
Precip. Amount Definition
mm

Wind Dir Definition
10's deg

Wind Spd Definition
km/h
Visibility Definition
km
Stn Press Definition
kPa
Hmdx Definition


Wind Chill Definition


Weather Definition


00:00 0.2 -4.2 72   LegendMM LegendMM   101.14     LegendNANA
01:00 0.1 -4.2 73   LegendMM LegendMM   101.06     LegendNANA
02:00 0.2 -3.9 74   LegendMM LegendMM   101.03     LegendNANA
03:00 0.1 -4.2 73   LegendMM LegendMM   101.02     LegendNANA
04:00 0.1 -4.0 74   LegendMM LegendMM   100.98     LegendNANA
05:00 -0.6 -2.6 86   LegendMM LegendMM   101.04     LegendNANA
06:00 -0.8 -2.0 92   LegendMM LegendMM   101.01     LegendNANA
07:00 -0.9 -4.4 77   LegendMM LegendMM   101.04     LegendNANA
08:00 -1.8 -5.5 76   LegendMM LegendMM   101.16     LegendNANA
09:00 -2.5 -6.4 75   LegendMM LegendMM   101.23     LegendNANA
10:00 -3.3 -7.3 74   LegendMM LegendMM   101.26     LegendNANA
11:00 -3.1 -7.9 69   LegendMM LegendMM   101.28     LegendNANA
12:00 -2.8 -8.5 65   LegendMM LegendMM   101.15     LegendNANA
13:00 -3.0 -8.5 66   LegendMM LegendMM   101.14     LegendNANA
14:00 -3.2 -8.9 65   LegendMM LegendMM   101.05     LegendNANA
15:00 -3.8 -10.0 62   LegendMM LegendMM   101.05     LegendNANA
16:00 -3.9 -10.0 63   LegendMM LegendMM   101.02     LegendNANA
17:00 -4.6 -11.4 59   LegendMM LegendMM   101.05     LegendNANA
18:00 -4.8 -11.3 60   LegendMM LegendMM   100.99     LegendNANA
19:00 -5.0 -11.1 62   LegendMM LegendMM   100.95     LegendNANA
20:00 -5.1 -11.2 62   LegendMM LegendMM   100.90     LegendNANA
21:00 -5.1 -11.1 63   LegendMM LegendMM   100.83     LegendNANA
22:00 -5.3 -11.0 64   LegendMM LegendMM   100.81     LegendNANA
23:00 -5.9 -12.0 62   LegendMM LegendMM   100.71     LegendNANA

Notes on Data Quality.

Legend

  • E = Estimated
  • M = Missing
  • NA = Not Available*
  • [empty] = Indicates an unobserved value
Date modified: